(91644) = 1997 GM44 = 1999 TP92

Discovered at Socorro on 1999-10-02 by LINEAR.

Orbit

Orbit type: Main Belt

Note: WebGL enabled browser required.

epoch2024-03-31.0
epoch JD2460400.5
perihelion date2019-12-21.10218
perihelion JD2458838.60218
argument of perihelion (°)250.34941
ascending node (°)138.22903
inclination (°)2.70195
eccentricity0.0881303
perihelion distance (AU)2.6662418
Tisserand w.r.t. Jupiter3.3
ΔV w.r.t. Earth (km/sec)10.2
semimajor axis (AU)2.9239284
mean anomaly (°)307.89764
mean daily motion (°/day)0.19713050
aphelion distance (AU)3.182
period (years)5.0
P-vector [x]0.87746551
P-vector [y]0.45583109
P-vector [z]0.14923907
Q-vector [x]-0.47861064
Q-vector [y]0.81174872
Q-vector [z]0.33465784
absolute magnitude15.1
phase slope0.15
uncertainty0
referenceMPEC 2024-E02
observations used1062
oppositions19
arc length (days)11430
first opposition used1991
last opposition used2022
residual rms (arc-secs)0.74
perturbers coarse indicatorM-v
perturbers precise indicator003Ek
first observation date used1991-01-16.0
last observation date used2022-05-03.0
computer nameMPCLINUX
JD of orbit computation2456966.802051
perihelion JD uncertainty (days)1.1187E-04
argument of perihelion uncertainty (°)8.5452E-05
ascending node uncertainty (°)8.2243E-05
inclination uncertainty (°)3.5263E-06
eccentricity uncertainty 4.4086E-08
perihelion distance uncertainty (AU)1.3163E-07
Minimum Orbit Intersection Distances (in AU)
for orbit epoch: 2460400.5, reference: E2024-E02
Mercury2.329
Venus1.94176
Earth1.6725
Mars1.20371
Jupiter2.2209
Saturn6.19248
Uranus15.3177
Neptune27.1552

Observations

1093 total observations over interval: 1991 01 16.28924 – 2022 05 03.606137
These data are available for download (format description).

Date (UT) J2000 RA J2000 Dec Magn Location Ref
1991 01 16.28924 08 03 08.47 +18 57 18.8 20.3 V 691 – Steward Observatory, Kitt Peak-Spacewatch MPS 77860
1991 01 16.30026 08 03 07.85 +18 57 21.7 19.8 V 691 – Steward Observatory, Kitt Peak-Spacewatch MPS 77860
1991 01 16.31168 08 03 07.21 +18 57 23.8 19.8 V 691 – Steward Observatory, Kitt Peak-Spacewatch MPS 77860
1994 10 12.20208 00 48 36.59 +01 21 32.4   691 – Steward Observatory, Kitt Peak-Spacewatch MPS 15280
1994 10 12.22556 00 48 35.32 +01 21 21.6   691 – Steward Observatory, Kitt Peak-Spacewatch MPS 15280
1994 10 12.24873 00 48 34.24 +01 21 14.6 18.4 V 691 – Steward Observatory, Kitt Peak-Spacewatch MPS 15280
1997 04 04.60710 13 11 25.45 -03 57 16.2 20.3 V 566 – Haleakala-NEAT/GEODSS MPC 30551
1997 04 04.61551 13 11 25.13 -03 57 13.5 20.1 V 566 – Haleakala-NEAT/GEODSS MPC 30551
1997 04 04.62408 13 11 24.81 -03 57 11.1 20.0 V 566 – Haleakala-NEAT/GEODSS MPC 30551
1997 04 11.17680 13 06 23.87 -03 23 46.3 19.8   704 – Lincoln Laboratory ETS, New Mexico MPC 30590
1997 04 11.23356 13 06 21.19 -03 23 28.9   704 – Lincoln Laboratory ETS, New Mexico MPC 30590
1999 09 09.40529 01 11 17.23 +04 16 20.0 19.2   704 – Lincoln Laboratory ETS, New Mexico MPS 15280
1999 09 09.41888 01 11 16.83 +04 16 17.9 19.1   704 – Lincoln Laboratory ETS, New Mexico MPS 15280
1999 09 09.43257 01 11 16.48 +04 16 14.4 19.9   704 – Lincoln Laboratory ETS, New Mexico MPS 15280
1999 09 09.45958 01 11 15.67 +04 16 07.8 19.5   704 – Lincoln Laboratory ETS, New Mexico MPS 15280
1999 10 01.26630 00 57 45.43 +02 25 50.6 17.9 R 703 – Catalina Sky Survey MPS 15280
1999 10 01.27859 00 57 44.78 +02 25 45.0 18.3 R 703 – Catalina Sky Survey MPS 15280
1999 10 01.29099 00 57 44.22 +02 25 41.3 18.9 R 703 – Catalina Sky Survey MPS 15280
1999 10 01.30336 00 57 43.68 +02 25 37.2 19.1 R 703 – Catalina Sky Survey MPS 15280
1999 10 02.35318 00 56 55.92 +02 19 44.4 18.5   704 – Lincoln Laboratory ETS, New Mexico MPS 13748
1999 10 02.36660 00 56 55.30 +02 19 40.9 18.7   704 – Lincoln Laboratory ETS, New Mexico MPS 13748
1999 10 02.38005 00 56 54.71 +02 19 34.6 19.0   704 – Lincoln Laboratory ETS, New Mexico MPS 13748
1999 10 02.39343 00 56 53.98 +02 19 31.2 18.9   704 – Lincoln Laboratory ETS, New Mexico MPS 13748
1999 10 02.40681 00 56 53.30 +02 19 26.7 18.7   704 – Lincoln Laboratory ETS, New Mexico MPS 13748
1999 10 04.17689 00 55 32.58 +02 09 33.3 18.1 V 691 – Steward Observatory, Kitt Peak-Spacewatch MPS 15280
1999 10 04.19764 00 55 31.61 +02 09 26.3 17.7 V 691 – Steward Observatory, Kitt Peak-Spacewatch MPS 15280
1999 10 04.21859 00 55 30.61 +02 09 19.2 17.8 V 691 – Steward Observatory, Kitt Peak-Spacewatch MPS 15280
1999 10 07.31282 00 53 07.16 +01 52 09.3 18.4   704 – Lincoln Laboratory ETS, New Mexico MPS 13748
1999 10 07.32326 00 53 06.65 +01 52 06.2 18.8   704 – Lincoln Laboratory ETS, New Mexico MPS 13748
1999 10 07.33403 00 53 06.13 +01 52 02.2 18.9   704 – Lincoln Laboratory ETS, New Mexico MPS 13748
1999 10 07.34455 00 53 05.66 +01 51 59.4 19.2   704 – Lincoln Laboratory ETS, New Mexico MPS 13748
1999 10 07.35522 00 53 05.05 +01 51 55.5 18.9   704 – Lincoln Laboratory ETS, New Mexico MPS 13748
1999 10 09.24296 00 51 37.72 +01 41 36.7 18.5   704 – Lincoln Laboratory ETS, New Mexico MPS 15280
1999 10 09.25845 00 51 36.97 +01 41 31.5 18.4   704 – Lincoln Laboratory ETS, New Mexico MPS 15280
1999 10 09.27385 00 51 36.19 +01 41 26.0 18.3   704 – Lincoln Laboratory ETS, New Mexico MPS 15280
1999 10 09.28945 00 51 35.47 +01 41 20.6 18.6   704 – Lincoln Laboratory ETS, New Mexico MPS 15280
1999 10 09.30488 00 51 34.71 +01 41 16.7 18.7   704 – Lincoln Laboratory ETS, New Mexico MPS 15280
1999 10 15.25333 00 47 03.12 +01 10 07.1 18.7   704 – Lincoln Laboratory ETS, New Mexico MPS 15280
1999 10 15.26960 00 47 02.36 +01 10 02.8 19.1   704 – Lincoln Laboratory ETS, New Mexico MPS 15280
1999 10 15.28669 00 47 01.58 +01 09 57.5 19.0   704 – Lincoln Laboratory ETS, New Mexico MPS 15280
1999 10 15.30378 00 47 00.74 +01 09 52.2 18.9   704 – Lincoln Laboratory ETS, New Mexico MPS 15280
1999 10 15.31976 00 47 00.00 +01 09 47.7 19.0   704 – Lincoln Laboratory ETS, New Mexico MPS 15280
1999 11 06.16750 00 34 00.45 -00 10 19.6 19.3   704 – Lincoln Laboratory ETS, New Mexico MPS 15280
1999 11 06.18380 00 34 00.06 -00 10 21.8 20.2   704 – Lincoln Laboratory ETS, New Mexico MPS 15280
1999 11 06.20014 00 33 59.61 -00 10 22.9 20.3   704 – Lincoln Laboratory ETS, New Mexico MPS 15280
1999 11 06.21648 00 33 59.25 -00 10 26.2 20.4   704 – Lincoln Laboratory ETS, New Mexico MPS 15280
2000 12 26.34904 08 20 02.93 +17 52 00.1 19.6 V 691 – Steward Observatory, Kitt Peak-Spacewatch MPS 23696
2000 12 26.37160 08 20 02.17 +17 52 04.3 19.8 V 691 – Steward Observatory, Kitt Peak-Spacewatch MPS 23696
2000 12 26.39375 08 20 01.27 +17 52 07.8 20.4 V 691 – Steward Observatory, Kitt Peak-Spacewatch MPS 23696
2000 12 30.38261 08 17 15.51 +18 03 11.5 19.5   704 – Lincoln Laboratory ETS, New Mexico MPS 23696
2000 12 30.39891 08 17 14.85 +18 03 15.2 19.2   704 – Lincoln Laboratory ETS, New Mexico MPS 23696
2000 12 30.41391 08 17 14.04 +18 03 17.6 19.6   704 – Lincoln Laboratory ETS, New Mexico MPS 23696
2000 12 30.42887 08 17 13.41 +18 03 20.1 19.3   704 – Lincoln Laboratory ETS, New Mexico MPS 23696
2001 01 02.30771 08 15 03.34 +18 11 59.2 19.0   704 – Lincoln Laboratory ETS, New Mexico MPS 23696
2001 01 02.32325 08 15 02.55 +18 12 01.8 19.5   704 – Lincoln Laboratory ETS, New Mexico MPS 23696
2001 01 02.33880 08 15 01.77 +18 12 04.0 18.9   704 – Lincoln Laboratory ETS, New Mexico MPS 23696
2001 01 02.35401 08 15 01.06 +18 12 07.5 19.1   704 – Lincoln Laboratory ETS, New Mexico MPS 23696
2001 01 03.30924 08 14 16.08 +18 15 05.0 19.3   704 – Lincoln Laboratory ETS, New Mexico MPS 23696
2001 01 03.32495 08 14 15.32 +18 15 06.9 19.4   704 – Lincoln Laboratory ETS, New Mexico MPS 23696
2001 01 03.34019 08 14 14.52 +18 15 10.9 19.5   704 – Lincoln Laboratory ETS, New Mexico MPS 23696
2001 01 19.20773 08 00 27.60 +19 08 30.6 17.8 R 699 – Lowell Observatory-LONEOS MPS 25004
2001 01 19.25151 08 00 25.15 +19 08 40.9   699 – Lowell Observatory-LONEOS MPS 25004
2001 01 19.27342 08 00 24.00 +19 08 44.9   699 – Lowell Observatory-LONEOS MPS 25004
2001 01 20.31885 07 59 27.15 +19 12 21.3 19.6   704 – Lincoln Laboratory ETS, New Mexico MPS 25004
2001 01 20.33377 07 59 26.34 +19 12 24.0 19.3   704 – Lincoln Laboratory ETS, New Mexico MPS 25004
2001 01 20.34869 07 59 25.53 +19 12 27.0 19.0   704 – Lincoln Laboratory ETS, New Mexico MPS 25004
2001 01 20.36361 07 59 24.66 +19 12 31.0 18.9   704 – Lincoln Laboratory ETS, New Mexico MPS 25004
2001 01 21.30786 07 58 33.64 +19 15 42.8 18.1   704 – Lincoln Laboratory ETS, New Mexico MPS 25004
2001 01 21.32305 07 58 32.79 +19 15 46.5 18.2   704 – Lincoln Laboratory ETS, New Mexico MPS 25004
2001 01 21.33820 07 58 31.98 +19 15 49.9 18.5   704 – Lincoln Laboratory ETS, New Mexico MPS 25004
2001 01 21.35336 07 58 31.15 +19 15 52.8 18.8   704 – Lincoln Laboratory ETS, New Mexico MPS 25004
2001 01 21.36851 07 58 30.35 +19 15 55.9 18.8   704 – Lincoln Laboratory ETS, New Mexico MPS 25004
2002 04 05.26440 13 09 20.28 -03 44 53.6 19.2   644 – Palomar Mountain/NEAT MPS 54467
2002 04 05.33671 13 09 16.84 -03 44 31.2 19.5   644 – Palomar Mountain/NEAT MPS 54467
2002 04 05.40538 13 09 13.60 -03 44 10.0 19.9   644 – Palomar Mountain/NEAT MPS 54467
2002 04 10.31279 13 05 28.07 -03 19 04.3 19.5   704 – Lincoln Laboratory ETS, New Mexico MPS 54467
2002 04 10.32443 13 05 27.51 -03 18 59.5 19.9   704 – Lincoln Laboratory ETS, New Mexico MPS 54467
2002 04 10.33621 13 05 26.93 -03 18 55.8 19.6   704 – Lincoln Laboratory ETS, New Mexico MPS 54467
2002 04 10.34791 13 05 26.38 -03 18 51.9 19.8   704 – Lincoln Laboratory ETS, New Mexico MPS 54467
2002 04 17.27463 13 00 13.75 -02 45 04.2 19.3   704 – Lincoln Laboratory ETS, New Mexico MPS 54467
2002 04 17.28824 13 00 13.21 -02 45 00.3 20.1   704 – Lincoln Laboratory ETS, New Mexico MPS 54467
2002 04 17.30184 13 00 12.45 -02 44 57.9 19.6   704 – Lincoln Laboratory ETS, New Mexico MPS 54467
2002 04 17.31548 13 00 11.87 -02 44 53.6 19.5   704 – Lincoln Laboratory ETS, New Mexico MPS 54467
